Wind_Speed
18 19 18 17 17 18 18 19 20 22 27 30 33 37 38 38 39 39 39 41 43 42 42 43 42 43 42 41 41 40 40 39 39 38 37 36 36 36 35 34 34 35 35 35 35 35 34 32 32 31 30 30 29 28 28 27 25 24 22 22 24 25 22
17 17 18 17 17 18 19 20 20 23 27 30 34 36 37 38 40 39 39 41 43 43 43 43 43 43 43 42 40 40 40 40 39 38 37 36 36 36 36 36 36 37 36 36 36 36 35 34 34 33 32 31 30 29 30 29 27 26 24 22 24 26 24
16 16 17 17 17 18 19 19 19 24 29 31 33 35 38 41 42 42 41 41 42 42 42 43 43 42 42 41 40 40 41 40 39 38 37 37 37 37 37 37 38 38 37 37 37 36 36 35 35 34 33 33 30 30 32 31 29 28 25 23 24 26 26
17 17 18 19 19 19 19 19 18 23 30 34 37 39 41 43 43 43 43 43 42 41 42 43 43 42 42 42 42 41 42 41 41 39 38 38 38 37 37 38 38 38 37 37 37 37 37 36 35 35 35 34 32 31 32 32 31 29 27 25 24 25 25
18 18 16 17 18 17 17 18 18 23 29 34 38 40 42 42 42 42 42 43 44 44 45 46 44 43 42 42 42 42 43 43 42 40 39 38 37 37 37 39 39 38 37 37 38 38 37 36 36 36 36 35 34 33 33 33 32 31 30 28 26 25 25
17 16 15 15 17 17 17 19 20 25 30 33 37 38 38 39 40 41 42 42 43 44 44 44 44 43 42 42 42 42 42 43 42 41 39 38 37 37 39 40 40 39 38 38 38 38 38 37 37 38 38 37 36 35 35 35 34 33 32 30 28 27 26
16 16 17 17 17 17 18 18 19 25 31 34 35 36 36 37 39 40 41 41 42 42 42 42 44 44 43 43 43 43 43 43 42 41 39 39 38 38 40 40 40 40 39 38 39 39 39 38 38 39 39 39 38 37 37 37 37 35 35 33 31 30 29
18 17 17 17 17 17 17 17 16 21 27 29 30 31 34 37 38 39 40 41 42 42 43 44 44 44 44 43 43 44 44 44 43 41 39 39 38 39 40 40 40 40 39 39 40 40 40 39 39 39 40 40 40 39 38 38 38 37 37 36 34 33 32
17 18 18 18 19 17 16 16 16 18 22 25 27 30 34 36 36 38 40 41 41 41 43 44 44 44 44 44 44 45 45 44 42 40 40 40 39 40 41 40 40 40 40 40 41 41 41 40 39 39 40 41 41 40 40 39 39 39 39 38 36 35 35
16 17 18 18 18 17 16 15 14 14 16 19 23 27 31 34 35 37 38 39 40 41 42 42 42 43 43 43 44 44 44 43 42 40 40 40 40 41 42 40 39 39 40 41 40 41 41 40 40 40 40 41 41 41 41 40 40 40 40 40 39 38 37
15 17 17 18 18 17 15 13 12 13 14 15 21 26 30 33 34 35 36 38 39 39 39 40 40 41 42 42 42 42 43 43 41 41 41 42 42 42 42 41 39 40 40 41 40 41 41 40 40 41 42 42 42 42 42 41 41 41 41 41 40 39 38
14 15 15 17 18 15 12 11 12 14 14 14 20 25 28 32 34 35 36 38 38 37 38 39 39 40 41 41 40 41 42 42 42 42 42 43 43 43 42 41 40 40 41 41 41 40 40 41 41 42 43 43 42 42 42 42 42 42 42 41 40 39 38
14 14 14 15 15 12 11 11 13 15 15 16 21 26 29 31 34 35 35 35 36 37 38 39 39 40 41 41 41 41 42 42 43 44 44 44 45 44 42 42 42 41 41 42 41 40 40 41 42 43 43 42 41 41 42 42 42 41 41 39 38 38 38
15 15 14 14 13 13 13 13 15 16 16 16 20 25 28 31 34 35 35 36 37 37 38 39 40 40 41 41 41 41 42 44 45 45 45 45 44 43 42 42 42 42 42 41 40 41 41 42 42 42 41 41 41 40 40 40 40 40 39 38 38 38 39
13 13 12 12 13 13 14 14 15 16 16 16 19 22 25 28 31 33 34 36 37 38 39 40 40 40 40 41 42 43 43 44 44 44 44 44 43 43 42 42 42 42 41 40 41 41 41 41 40 39 39 39 39 38 38 38 39 40 39 39 39 39 39
12 12 12 13 14 13 14 15 15 15 15 15 16 19 23 26 29 32 34 35 37 38 40 41 40 40 40 41 43 44 43 43 43 42 43 43 43 43 43 42 42 41 40 40 41 41 40 38 37 37 37 37 37 37 37 38 39 40 41 42 41 40 38
14 15 16 16 16 16 15 15 14 14 14 14 16 20 24 27 30 33 34 35 37 39 40 41 41 41 41 42 42 42 42 42 42 42 42 43 44 43 43 43 42 41 40 40 40 39 38 36 36 37 37 37 37 37 38 40 40 41 42 42 41 39 38
12 14 16 17 16 15 14 15 14 14 15 15 17 22 26 28 29 31 33 36 38 40 40 41 41 41 42 42 41 41 42 42 42 42 42 43 43 43 43 42 41 40 40 39 38 37 36 35 36 37 37 37 38 38 39 41 42 43 42 41 40 39 39
9 10 12 13 13 13 14 13 13 15 16 16 19 25 30 31 31 32 36 39 40 39 39 40 41 41 41 41 40 41 43 43 42 42 43 43 44 43 41 40 40 40 39 38 37 36 35 35 36 36 36 38 38 39 40 41 41 41 40 39 40 40 41
10 10 11 11 12 13 14 13 13 14 17 21 26 31 35 35 36 37 40 40 39 38 39 40 40 39 39 40 40 42 42 42 42 43 43 43 42 40 39 39 40 40 38 36 35 34 34 35 36 36 37 38 39 39 40 40 39 38 38 39 39 39 41
12 12 12 12 12 12 12 13 14 14 17 24 30 33 33 34 35 37 36 35 35 37 39 39 39 39 39 39 40 41 41 42 42 43 42 41 40 38 38 39 39 37 35 34 34 35 35 35 36 37 38 38 38 37 37 37 36 35 36 37 37 37 39
11 13 14 15 16 16 17 17 17 18 21 26 29 29 30 33 36 35 33 34 36 37 38 37 37 37 38 38 40 41 41 42 42 41 40 39 38 37 38 38 37 36 34 33 34 35 35 36 37 38 38 37 36 35 34 33 33 32 33 33 34 36 38
9 10 12 12 12 13 16 19 22 24 26 28 28 29 32 35 37 35 32 33 34 35 36 35 35 37 38 39 41 42 43 43 42 40 39 38 37 37 38 37 36 35 34 34 34 35 36 37 38 38 37 36 35 34 32 30 29 29 29 30 31 34 36
7 6 8 9 10 10 10 14 20 23 24 24 25 30 34 35 35 33 30 31 32 33 33 32 34 36 38 40 43 44 44 43 42 40 38 38 38 37 37 36 35 35 36 36 36 36 37 37 35 34 35 36 36 35 32 29 27 26 25 27 29 33 36
9 4 2 3 6 10 14 19 22 23 22 21 23 30 33 33 32 30 27 28 32 32 31 32 36 39 40 42 44 44 43 42 41 40 38 38 38 37 36 36 36 36 37 37 36 35 35 34 33 32 33 34 34 32 29 26 24 23 24 25 28 32 34
10 9 8 7 7 6 12 21 22 18 17 19 24 31 33 32 30 27 27 29 30 29 30 35 40 42 45 45 43 41 41 41 40 40 39 38 37 36 37 36 35 36 36 35 34 33 33 33 33 31 30 29 29 27 25 24 23 23 24 25 27 30 33
8 8 9 9 12 12 6 11 15 17 22 28 32 34 34 32 28 25 26 27 25 27 35 41 44 45 45 43 39 38 39 40 40 40 39 38 37 36 36 36 36 36 36 34 33 33 32 31 31 29 28 26 26 25 24 23 22 21 22 23 25 29 32
10 11 12 14 17 17 10 3 8 13 18 23 26 27 27 26 24 25 27 25 25 33 40 41 43 44 41 38 37 38 39 39 39 39 37 37 37 37 35 35 36 37 36 35 34 32 30 29 28 27 25 24 24 24 23 21 19 18 20 22 24 29 32
10 10 11 12 16 18 14 6 1 2 3 5 7 8 9 11 12 14 17 19 27 38 42 40 40 39 35 34 35 36 38 38 38 39 38 38 40 39 37 36 35 36 36 36 34 32 29 28 27 26 24 23 22 21 20 19 18 17 18 21 24 27 30
9 9 9 9 11 15 14 8 6 6 5 4 2 1 3 4 4 4 4 8 15 20 23 28 33 33 31 32 33 34 36 37 38 38 38 39 40 39 37 35 35 35 35 36 34 31 28 27 26 26 24 22 21 19 18 18 17 16 18 21 24 27 28
9 9 9 9 11 13 12 8 7 8 8 8 6 4 6 6 5 3 1 3 7 9 11 17 24 27 29 31 32 34 35 36 37 38 38 39 40 39 37 35 34 32 31 32 31 28 26 26 26 26 24 22 21 20 19 18 18 18 20 22 24 27 28
10 11 11 12 13 15 14 10 9 9 9 12 12 8 6 5 4 3 1 3 2 2 5 11 17 22 26 29 31 33 35 35 33 32 31 30 30 30 29 30 29 27 24 24 23 24 25 26 25 24 23 23 22 22 21 20 19 20 23 26 27 28 27
11 11 11 12 14 16 15 11 10 10 9 12 14 12 8 6 5 4 6 6 5 6 9 11 11 12 15 20 24 26 29 30 30 29 28 28 29 30 28 26 27 26 24 24 23 22 24 24 23 23 23 23 23 22 22 21 21 22 25 28 30 29 27
10 10 11 13 15 15 12 9 8 9 9 10 12 13 12 11 10 7 7 9 13 17 19 18 15 11 10 13 19 24 28 31 33 34 34 33 33 33 30 28 28 28 28 30 31 28 26 26 25 25 26 25 24 22 21 21 23 24 26 30 32 32 30
10 11 12 14 15 13 10 8 8 9 10 10 12 14 16 15 14 12 13 16 21 27 30 32 32 29 24 20 22 27 31 33 35 35 36 35 33 30 29 29 31 29 27 29 32 30 28 27 28 29 29 29 28 26 23 23 25 26 27 29 32 32 31
10 11 13 16 16 13 10 10 10 10 10 11 13 16 17 18 18 18 19 23 28 32 34 34 34 36 35 30 26 28 30 33 34 34 34 35 35 32 28 27 29 31 29 28 27 26 24 25 27 29 29 29 30 29 28 27 27 26 26 28 29 29 29
10 10 13 16 16 12 9 9 9 10 10 10 11 13 15 18 20 21 22 24 26 29 31 27 21 21 26 26 26 27 29 31 34 34 32 32 34 35 33 29 27 27 27 26 24 22 22 22 24 25 27 27 27 26 24 24 24 24 24 25 25 25 24
14 15 16 17 17 14 11 9 9 10 11 12 11 10 9 12 17 20 22 24 24 22 22 23 19 16 17 19 21 23 24 25 29 33 33 31 31 33 33 31 27 22 21 21 20 20 21 21 21 22 23 24 23 22 21 21 21 22 22 22 22 22 22
Wind_Direction
188 191 190 190 191 192 193 193 194 195 193 192 193 194 193 193 193 192 192 193 192 193 193 194 194 194 196 200 203 206 207 207 207 207 207 207 208 208 206 205 206 208 209 209 210 210 209 207 205 205 207 210 212 212 210 206 207 210 210 211 214 215 214
188 191 191 191 192 193 195 195 194 193 193 193 193 193 193 193 193 192 193 193 193 193 193 194 195 195 197 199 202 206 208 209 208 208 208 209 210 210 208 207 207 210 211 211 212 211 209 207 206 207 207 209 213 212 210 208 208 211 212 211 212 214 214
190 190 189 191 192 193 196 196 195 194 193 193 192 192 194 194 193 192 192 193 193 193 193 194 195 196 197 198 201 205 208 210 210 209 209 209 210 210 209 209 210 212 212 212 212 210 208 207 207 208 207 210 213 211 209 208 208 212 213 209 208 213 214
194 190 188 191 192 194 196 195 194 195 195 194 193 193 195 195 193 193 193 193 192 192 193 194 195 196 196 197 200 204 208 211 211 211 210 210 210 209 208 209 211 211 211 211 211 209 208 206 207 208 208 211 212 209 207 208 208 210 213 211 211 213 214
198 194 189 190 192 195 196 195 195 195 195 194 194 195 195 193 191 192 193 193 193 193 194 195 195 195 196 197 199 203 207 210 212 212 211 211 210 209 208 210 210 209 210 210 209 208 207 206 206 207 208 211 212 209 206 207 208 210 213 214 214 213 212
199 196 192 192 193 195 196 197 197 195 194 193 194 195 193 190 190 191 193 194 194 194 194 194 193 194 195 197 199 203 206 210 212 212 212 212 211 210 210 211 210 209 209 209 208 208 208 208 208 209 209 210 211 210 208 209 210 211 212 214 215 213 212
198 196 196 195 194 195 197 199 198 195 194 193 192 191 189 188 190 191 192 193 193 193 193 193 193 193 194 196 199 202 205 208 210 211 212 212 212 212 213 213 211 210 210 209 209 209 209 210 211 211 210 210 210 211 211 211 211 212 213 213 214 214 214
197 196 197 196 194 196 197 196 195 194 193 191 187 187 187 188 189 190 192 193 193 193 192 192 193 193 194 195 197 201 203 206 208 209 210 211 212 213 214 214 213 211 210 210 210 210 211 212 212 212 211 210 211 211 211 212 212 212 212 213 214 215 215
198 196 196 197 196 196 196 193 192 190 188 186 185 185 186 187 189 191 193 193 192 193 193 193 193 193 194 195 197 200 202 204 206 207 209 210 212 213 215 215 214 212 210 210 211 211 212 213 212 211 210 211 211 212 212 212 211 211 212 214 215 216 216
198 199 199 197 197 198 196 191 185 181 182 184 184 184 184 187 190 192 193 193 193 194 194 193 193 193 193 195 197 199 200 202 204 205 207 210 211 213 215 215 214 212 210 210 211 212 213 213 212 211 211 212 212 213 213 212 211 211 212 214 216 217 218
198 201 200 198 199 201 194 181 175 178 182 183 182 182 184 187 190 192 193 194 194 194 193 192 192 192 193 195 197 198 199 200 202 204 207 209 212 214 215 214 214 213 211 211 211 212 213 212 212 212 212 213 213 213 213 213 213 213 213 214 216 218 219
201 201 201 201 200 197 186 174 177 182 182 183 182 181 184 187 189 192 194 195 194 193 191 192 192 192 194 195 196 197 199 199 201 203 206 209 212 214 214 214 214 213 212 212 212 212 212 212 212 213 213 214 214 214 214 215 215 215 215 215 215 216 218
197 198 199 200 196 187 176 175 180 182 182 184 184 184 185 186 189 192 193 194 194 192 191 191 192 192 194 195 196 198 199 199 201 203 206 209 211 213 213 213 213 214 213 213 212 211 212 212 213 214 214 214 214 215 215 215 216 217 216 215 214 213 215
195 199 198 194 190 184 179 181 182 180 183 186 186 186 186 187 190 192 192 193 193 191 191 191 192 193 194 195 196 198 200 201 202 204 206 209 211 212 213 213 214 214 214 213 212 212 212 213 213 214 214 215 215 215 216 216 216 216 216 215 214 214 214
192 196 193 190 193 189 186 188 184 180 183 185 184 185 186 188 191 191 192 193 192 191 192 192 193 193 194 195 198 200 201 202 203 204 206 208 210 212 213 213 214 215 214 213 213 213 214 214 214 214 214 215 216 216 216 216 217 217 216 215 214 214 215
182 187 188 192 195 192 191 191 186 182 182 182 183 183 184 188 190 191 193 193 192 193 193 192 193 194 195 197 199 200 201 202 203 204 205 207 209 211 212 213 214 214 214 214 214 214 214 214 214 214 214 215 216 216 217 218 219 219 219 219 216 214 214
180 184 187 192 195 193 192 189 184 182 179 180 184 185 186 188 190 192 194 193 193 194 192 192 194 196 197 200 201 200 200 202 203 204 205 207 209 210 211 212 213 214 214 214 214 214 213 213 213 214 215 216 217 217 218 220 221 222 222 221 218 215 215
187 191 190 192 193 191 190 186 180 179 181 185 188 187 189 190 190 192 194 194 195 194 192 192 195 197 200 201 201 199 200 202 203 204 206 207 208 210 211 211 212 213 213 213 213 213 211 211 212 213 215 216 218 219 220 222 224 225 223 221 218 218 221
187 196 193 191 188 184 186 186 182 182 184 187 189 191 193 191 191 194 196 196 196 193 191 194 196 198 200 201 200 200 201 202 203 204 206 207 208 209 209 209 211 213 213 212 212 211 210 210 211 213 214 216 218 220 222 225 226 225 223 221 221 222 224
180 187 190 191 191 188 186 184 185 188 190 191 192 195 196 194 194 198 199 197 195 191 192 195 197 199 200 201 201 202 202 202 203 205 207 207 207 207 207 209 211 213 212 211 211 210 209 210 211 213 215 216 218 220 223 225 225 224 224 223 223 225 224
182 184 185 187 189 194 194 191 192 193 194 197 197 196 196 196 198 200 199 197 194 193 195 196 197 199 201 201 202 203 202 202 203 205 206 207 206 205 206 208 210 211 210 209 209 209 210 211 212 214 217 218 219 220 221 223 224 224 224 224 225 226 224
195 189 189 190 189 191 194 196 197 197 198 199 199 197 196 197 199 199 198 196 194 195 197 197 198 200 200 201 202 203 203 203 203 204 205 204 203 203 205 207 208 209 207 207 208 209 210 213 214 216 217 217 217 218 219 221 222 223 224 225 225 225 222
228 203 195 195 197 203 205 202 201 201 199 197 196 196 198 200 200 197 196 196 195 197 198 199 200 201 201 202 203 203 204 203 202 203 203 201 201 202 204 204 205 205 204 204 205 206 209 212 214 214 214 213 214 215 215 216 219 221 223 223 223 222 218
279 226 204 205 208 217 224 218 213 211 203 194 193 197 199 201 200 196 195 195 195 197 199 200 203 203 202 204 204 204 204 203 202 201 200 200 201 201 201 202 202 203 203 203 204 205 207 209 209 209 209 210 211 212 213 214 217 219 220 220 220 220 216
338 334 311 261 226 218 216 213 215 216 208 198 196 200 200 200 197 195 195 195 195 196 198 202 205 205 205 207 206 204 203 202 201 200 199 199 200 199 199 199 200 201 202 202 203 202 203 203 201 201 204 207 209 210 211 212 214 214 215 216 218 219 215
353 358 10 7 348 301 237 216 209 205 203 204 206 205 202 198 195 194 197 198 197 197 200 204 206 207 208 208 207 204 202 201 200 200 199 199 198 197 197 197 197 198 197 197 197 196 194 193 192 192 194 198 201 203 204 206 205 205 208 213 216 216 211
354 1 10 6 1 356 312 235 218 204 200 204 209 209 204 197 192 194 198 199 199 202 205 207 208 209 210 208 204 202 201 201 200 200 198 197 194 193 194 194 193 192 190 188 187 185 183 183 184 184 185 188 192 195 198 202 202 202 205 209 212 212 209
6 5 5 358 357 2 1 285 237 227 218 215 214 214 210 202 196 197 199 198 203 209 210 209 210 211 210 206 201 199 198 199 199 197 195 193 190 188 188 189 188 185 182 178 177 175 174 175 176 177 178 181 188 193 196 201 206 207 207 208 209 210 208
10 1 1 1 354 351 353 2 356 288 276 260 248 233 219 209 209 213 210 208 212 214 213 211 211 211 209 203 199 196 195 195 194 192 190 188 185 183 182 181 179 175 172 170 169 167 166 168 169 169 169 173 181 188 193 199 203 207 209 208 206 207 207
15 7 2 360 350 345 347 358 19 37 56 59 35 152 169 179 195 220 248 250 244 239 231 219 210 206 203 199 195 192 190 189 188 186 184 182 180 177 174 172 168 165 165 164 162 160 159 160 162 162 162 165 171 178 187 194 196 200 205 203 199 200 202
13 9 1 358 359 358 358 5 18 29 41 43 48 104 138 147 161 159 29 292 263 268 262 234 211 198 194 192 190 187 183 180 179 179 178 177 175 171 167 164 160 157 156 155 154 154 153 154 157 159 159 162 168 174 183 188 189 191 193 192 192 194 197
13 9 3 1 2 5 10 21 33 39 36 26 27 51 93 112 147 178 277 311 270 202 212 210 197 190 188 185 181 178 173 168 166 165 164 163 160 155 151 149 144 139 138 142 149 154 154 153 154 156 158 163 169 175 180 183 184 185 184 183 185 189 192
14 9 7 5 3 6 16 26 32 39 37 26 26 39 64 82 97 154 193 206 192 156 154 163 172 180 182 174 167 162 156 149 141 134 130 129 128 126 124 128 135 140 145 153 160 160 155 154 154 156 161 167 172 176 178 178 180 182 182 182 184 187 189
11 6 10 12 10 13 23 31 38 47 47 36 38 53 70 76 75 91 139 162 166 158 147 135 124 111 107 120 126 126 126 125 122 120 118 120 126 131 135 144 155 159 162 168 172 168 160 157 160 165 169 172 172 170 170 174 180 182 183 186 189 189 189
17 13 13 13 16 25 41 48 49 55 54 52 63 78 85 88 95 112 128 143 156 155 142 132 128 124 116 111 111 114 118 120 122 123 125 129 135 141 147 156 162 163 165 172 175 174 169 167 171 175 176 175 173 169 168 175 183 184 185 189 192 192 192
24 21 17 16 18 29 47 56 56 56 56 62 81 98 103 102 107 117 127 138 148 147 140 135 138 139 137 135 133 130 128 126 127 130 134 138 140 139 139 145 153 160 165 169 172 176 180 182 183 183 180 177 176 176 176 178 180 182 186 191 193 195 196
31 26 19 19 22 27 37 47 48 48 52 58 75 98 113 116 117 119 122 124 128 131 130 127 126 130 133 136 139 141 139 135 135 137 137 138 138 136 133 132 139 152 162 166 169 176 184 187 186 184 182 180 178 179 180 178 175 177 184 189 191 193 195
41 37 29 26 26 28 32 37 38 35 37 38 41 54 77 96 103 109 115 116 112 109 110 110 106 105 112 119 126 132 135 135 136 135 134 135 135 135 134 132 131 136 147 156 164 171 174 174 174 177 181 180 175 175 180 182 179 180 182 184 187 190 193
Height
691 692 693 695 697 700 702 703 705 708 712 716 719 723 727 730 734 737 740 743 747 751 755 758 761 764 768 771 775 778 780 781 783 784 786 788 789 791 794 795 797 798 798 800 801 803 805 807 809 811 813 815 816 817 819 820 821 822 824 825 826 827 828
687 689 689 691 693 695 696 697 699 702 706 710 714 718 722 725 728 732 735 739 742 746 750 754 758 760 763 767 771 775 777 778 780 782 783 785 787 789 791 793 794 794 796 797 799 801 803 805 807 809 811 812 814 815 816 818 819 821 822 823 824 825 826
683 684 684 686 688 690 691 692 694 697 700 704 708 712 715 718 722 726 730 734 739 743 747 750 754 757 760 764 768 771 773 775 777 778 780 781 783 786 788 790 791 791 793 795 797 799 800 803 804 806 808 810 811 813 814 816 817 819 820 821 822 823 825
677 677 678 680 681 683 684 686 689 691 694 697 700 704 707 711 716 721 725 729 734 738 742 746 749 753 756 760 763 766 769 771 773 775 777 778 781 783 785 787 787 789 790 792 794 796 798 800 802 804 806 807 809 810 812 814 815 817 818 819 820 821 823
673 672 674 676 677 679 680 681 683 685 688 692 695 699 702 707 713 718 722 725 729 732 735 740 744 748 753 755 758 761 764 767 770 772 774 776 778 781 782 783 784 786 787 789 792 793 795 797 799 801 803 804 806 808 810 812 813 815 816 817 818 819 820
669 670 671 672 673 674 675 675 676 678 682 686 690 695 699 705 710 713 717 721 724 728 732 736 740 744 748 751 754 757 760 763 766 768 771 773 775 777 778 779 781 783 784 786 789 791 792 794 796 797 799 801 803 805 807 809 810 812 813 814 815 816 817
663 664 665 665 666 668 669 670 671 673 677 681 685 692 696 701 705 709 713 716 720 724 728 732 736 739 743 746 749 752 755 758 761 765 768 770 772 774 775 776 778 779 782 783 785 787 789 791 792 794 796 798 800 802 803 805 807 809 810 811 813 814 815
655 657 659 659 660 662 663 665 668 670 674 678 683 688 692 696 700 705 708 711 715 719 723 726 730 734 737 741 744 747 749 753 757 761 764 766 768 770 771 773 774 776 779 780 782 784 785 787 789 791 793 795 797 798 800 801 803 805 807 808 810 811 812
649 651 652 653 653 656 658 660 663 666 671 676 679 683 687 692 696 699 702 706 711 714 717 721 725 729 733 736 739 741 745 749 752 756 760 762 764 766 767 769 771 773 775 776 778 780 782 784 786 788 790 791 793 794 796 798 799 801 803 804 806 807 808
647 647 647 647 649 650 652 655 660 665 669 673 676 680 684 688 691 695 699 703 706 709 713 718 722 726 729 732 735 738 741 744 747 752 755 757 759 761 763 766 768 770 771 773 775 776 778 781 783 785 786 787 789 790 792 794 796 798 799 800 802 803 805
644 644 644 646 647 648 651 655 660 663 665 668 671 675 679 683 687 691 695 698 701 706 711 715 719 723 726 729 732 735 737 739 743 746 749 752 754 756 759 762 764 766 767 769 771 773 775 777 779 781 782 782 784 786 788 790 792 793 795 797 798 800 801
641 642 644 645 645 648 651 655 658 660 662 664 667 671 675 679 683 687 690 694 698 703 708 712 716 719 722 725 728 730 732 735 738 740 744 747 749 751 754 757 760 761 763 765 766 769 771 773 775 776 777 778 780 782 784 786 788 789 791 793 795 797 800
638 639 641 642 643 647 651 653 656 657 659 662 663 667 670 674 678 682 686 690 695 700 704 708 712 714 717 720 723 726 728 729 732 734 737 741 743 746 750 752 755 757 758 760 762 765 767 768 770 771 773 775 777 779 780 782 785 786 788 791 792 795 797
637 637 638 640 642 646 648 651 652 653 656 657 660 664 667 670 674 677 681 685 690 695 699 703 707 709 712 715 717 720 722 724 726 728 731 735 738 742 745 747 750 752 754 756 758 760 762 763 765 767 770 772 774 776 778 780 782 783 785 788 789 791 792
637 638 639 641 643 644 645 647 647 649 651 653 656 660 664 667 671 674 678 681 685 690 693 697 701 704 707 709 711 713 715 718 721 723 727 730 734 737 740 742 745 747 750 752 754 755 757 759 762 765 767 770 772 774 775 776 777 779 781 783 785 786 788
634 636 639 640 641 641 642 643 643 645 647 650 653 656 660 664 667 670 673 676 680 684 687 692 696 699 701 702 703 706 710 714 717 719 722 725 728 731 734 738 741 743 746 747 749 751 754 756 759 762 764 767 768 771 772 772 773 775 777 778 780 783 786
628 630 632 634 635 636 637 639 641 642 645 648 650 652 656 658 661 665 668 671 675 678 682 687 690 693 695 696 698 702 706 709 712 715 717 719 722 726 729 733 736 738 741 743 745 748 750 754 756 759 761 763 765 766 767 768 770 771 773 775 778 782 784
625 625 626 627 629 632 634 635 638 640 642 644 646 648 651 653 657 661 663 666 669 672 677 681 684 687 689 691 695 699 701 704 707 709 712 714 717 720 724 728 731 734 737 739 741 745 747 750 753 755 757 760 761 762 763 764 765 767 769 773 776 779 780
625 625 624 625 626 628 631 632 633 635 636 639 641 644 646 649 653 655 657 660 663 667 672 675 677 681 684 687 691 693 695 699 701 704 706 708 711 715 720 724 727 729 732 735 739 742 744 747 749 751 754 756 757 758 759 760 761 764 767 770 772 775 776
622 623 623 624 625 625 626 627 628 630 631 633 636 638 641 644 647 649 651 655 659 664 667 670 673 676 679 682 686 688 691 694 696 699 701 704 708 712 716 720 722 725 730 733 736 739 741 744 746 748 750 751 752 754 755 757 759 761 765 767 769 772 773
618 619 620 621 622 623 623 624 624 625 626 628 630 633 637 641 643 646 650 654 658 660 662 664 668 671 674 678 681 683 686 689 691 694 697 701 705 709 713 716 719 723 727 731 733 736 738 741 743 745 746 747 749 751 753 754 756 759 762 764 767 769 771
613 613 614 614 615 616 616 617 618 619 621 623 626 631 634 637 639 643 647 650 653 655 657 660 663 666 669 672 675 678 681 684 687 690 693 698 702 706 709 712 716 720 724 728 731 733 735 738 739 740 742 744 747 749 750 752 754 757 759 762 765 767 769
611 609 607 606 608 608 607 609 611 613 616 619 623 627 629 632 635 638 642 646 649 651 654 657 659 661 664 666 669 672 675 679 682 686 690 695 698 702 705 709 713 717 721 725 728 729 731 733 734 736 739 741 744 745 747 749 751 754 757 759 762 764 766
611 609 607 605 606 607 607 610 611 613 615 618 621 623 625 629 632 635 638 641 643 647 650 652 654 656 658 661 663 666 670 674 678 682 687 691 694 698 702 706 711 714 717 720 723 724 727 729 731 733 736 738 740 741 744 746 749 752 754 756 758 759 761
613 611 610 607 607 607 607 608 610 612 615 616 618 620 623 627 630 633 635 636 638 641 644 646 649 651 653 655 657 662 666 671 675 679 683 687 691 695 699 703 707 711 713 716 718 721 723 726 728 731 732 735 737 739 742 744 747 749 751 753 754 756 758
619 617 614 611 609 608 606 606 607 610 612 614 615 616 619 623 626 629 630 631 634 636 638 640 643 645 647 649 654 660 664 668 673 676 680 684 688 692 697 700 704 707 710 713 716 718 721 723 725 728 730 733 735 737 740 743 745 747 749 751 753 755 757
621 619 617 615 612 609 607 607 607 607 607 608 609 612 614 617 620 622 625 627 630 631 631 633 637 639 642 646 651 657 661 665 669 673 677 681 686 690 695 697 700 703 706 710 713 716 719 722 724 727 729 732 734 736 739 741 743 745 747 750 752 753 755
621 619 618 616 612 609 607 607 607 608 607 606 607 610 612 614 615 616 619 622 624 625 626 629 633 636 640 644 648 652 656 661 665 670 674 679 683 687 691 694 697 700 703 707 711 715 718 721 723 726 729 731 734 736 737 739 742 744 747 749 750 752 754
627 626 624 621 617 613 609 608 608 609 610 610 610 612 613 615 616 617 618 619 619 620 622 626 630 634 639 642 645 647 651 656 661 665 669 673 677 682 687 691 694 698 701 705 709 713 717 720 722 725 728 731 733 735 736 738 741 744 746 748 749 752 754
631 631 629 627 625 621 616 612 610 609 610 610 611 613 613 615 617 618 621 622 622 624 627 628 630 633 636 640 642 644 647 651 656 661 665 669 674 678 683 688 692 696 700 703 706 711 715 718 721 724 727 730 732 733 736 738 740 742 744 746 748 752 754
632 632 629 628 627 625 622 618 614 613 613 612 612 613 613 614 616 618 620 622 623 626 630 633 634 633 634 636 639 641 644 647 652 657 661 667 671 675 681 687 691 695 698 701 706 711 715 718 721 724 726 729 731 733 735 737 739 741 743 745 748 752 755
633 631 629 627 625 624 623 620 617 616 616 616 615 614 613 614 615 617 620 622 623 625 627 632 635 635 635 635 636 638 641 644 650 657 663 669 674 679 684 689 692 697 702 707 713 716 717 718 721 723 726 728 731 733 735 736 738 740 742 745 748 752 755
636 634 632 630 628 625 623 621 620 620 620 620 619 616 615 615 614 615 617 619 622 625 627 631 635 639 641 639 638 640 643 645 650 657 664 671 675 680 686 692 696 702 707 712 717 720 719 719 721 723 726 728 731 732 734 735 737 739 741 744 748 751 754
640 638 635 633 631 629 626 625 625 624 624 623 622 619 617 616 616 617 617 617 618 620 623 628 634 642 649 649 645 644 645 648 652 656 662 669 674 678 684 691 697 703 707 709 713 716 716 717 720 722 725 727 729 731 733 735 736 737 740 743 746 750 753
642 640 638 636 634 632 631 629 628 627 626 626 624 622 620 619 618 618 617 617 616 616 618 622 626 634 645 653 653 651 648 649 651 653 657 665 673 680 686 689 693 700 707 711 712 713 714 716 718 721 723 725 726 728 730 732 734 736 739 743 745 748 750
644 642 640 638 637 635 634 633 631 629 628 627 626 624 622 621 620 619 617 616 615 614 616 620 621 623 630 641 650 654 651 647 648 651 657 664 671 679 686 691 694 700 707 711 712 713 714 716 717 720 722 723 725 726 727 729 732 735 740 743 746 748 750
646 644 643 641 639 637 637 635 633 631 630 629 628 627 625 622 620 619 618 618 618 617 619 623 627 629 629 633 642 649 649 646 646 651 659 667 671 676 683 689 695 702 707 709 711 712 715 716 718 719 721 722 724 726 728 730 733 736 739 742 745 748 751
648 647 647 645 642 640 639 638 637 636 634 634 633 632 631 629 626 624 622 621 622 624 625 627 631 636 638 640 643 646 649 651 651 652 659 667 672 676 680 687 694 701 706 708 710 712 715 717 718 720 721 722 724 725 728 730 733 736 738 741 744 747 749